Regional Weather Roundup
Issued by NWS

Home | Current Version | Previous Version | Graphics & Text | Print | Product List | Glossary On
Versions: 1 2 3 4 5 6 7 8 9 10 11 12 13 14 15 16 17 18 19 20 21 22 23 24 25 26 27 28 29 30 31 32 33 34 35 36 37 38 39 40 41 42 43 44 45 46 47 48 49 50
151
ASUS43 KBIS 120802
RWRND

NORTH DAKOTA REGIONAL WEATHER ROUNDUP
NATIONAL WEATHER SERVICE BISMARCK ND
200 AM CST FRI FEB 12 2016

NOTE: "FAIR" INDICATES FEW OR NO CLOUDS BELOW 12,000 FEET WITH NO
SIGNIFICANT WEATHER AND/OR OBSTRUCTIONS TO VISIBILITY.


NDZ001>003-009>011-017-120900-
NORTHWEST NORTH DAKOTA

CITY           SKY/WX    TMP DP  RH WIND       PRES   REMARKS
WILLISTON      CLOUDY    18  12  77 N13       30.39R WCI   5
MINOT          CLOUDY     8  -1  66 N10       30.39R WCI  -6
MINOT AFB      CLOUDY     6   1  79 CALM      30.39
$$

NDZ018>021-031>035-040>046-120900-
SOUTHWEST NORTH DAKOTA

CITY           SKY/WX    TMP DP  RH WIND       PRES   REMARKS
BISMARCK       CLOUDY    20  14  77 NW3       30.34R
DICKINSON      CLOUDY    19  15  84 N8        30.27S WCI   9
GARRISON         N/A     13   8  81 N10G17    30.34R WCI   0
HETTINGER ARPT CLOUDY    23  19  85 N7        30.30R WCI  15
$$

NDZ004>008-012>016-024-026-027-054-120900-
NORTHEAST NORTH DAKOTA

CITY           SKY/WX    TMP DP  RH WIND       PRES   REMARKS
GRAND FORKS    CLEAR      4  -4  69 N10       30.37R WCI -11
GRND FRKS AFB  CLEAR      4  -4  69 N10       30.36R WCI -11
DEVILS LAKE    PTCLDY    -3  -6  87 NW12      30.35R WCI -21
$$

NDZ022-023-025-028>030-036>039-047>053-120900-
SOUTHEAST NORTH DAKOTA

CITY           SKY/WX    TMP DP  RH WIND       PRES   REMARKS
FARGO          CLOUDY     8   1  73 N13       30.33R WCI  -8
JAMESTOWN      CLOUDY    11   6  81 N10       30.31R WCI  -3
$$





USA.gov is the U.S. government's official web portal to all federal, state and local government web resources and services.